Starlink 32271

operational
NORAD ID: 60368 Int'l Des: 2024-138 Owner: SPXS Country: US Constellation: starlink
LEOCIRCULAR

About Starlink 32271

Description loading...

Live Position

Loading 3D Globe...

Upcoming Passes

Altitude History

Altitude vs Time

uPlot chart will show altitude changes over time

Two-Line Element Set

1 60368U 24138P 25306.39140381 -.00000938 00000-0 -19533-4 0 9993
2 60368 53.1588 181.1781 0001597 93.4128 266.7056 15.30221955 71138
Epoch: Nov 2, 2025 • Age: 10 hours

Current Status

Altitude 477.9 km
Velocity 7.63 km/s
Sub-Earth Point 40.69°N, 13.09°W
Launch Date Aug 4, 2024
Age 1.2 years
Type internet

Technical Details

Classification Payload
Mass 730.00 kg
Dry Mass 700.00 kg
Total Mass 730.00 kg
Length 0.30 m
Diameter 4.10 m
Span 29.00 m
Shape Box + pan
Manufacturer SPXS
Bus Type Starlink V2M
Phase Status In Orbit
Owner/State SPXS/US

Large Constellations

Loading constellations...